Location: Arena
(42.5007°N, 9.4650°E)
Time: 16:39:29
(UTC+00:00)

Cosmos 1570 Rocket - Pass Details

Date: 09 April 2020
Orbit: 764 x 787 km, 74.1° (Epoch: 04 June)

Event Time Altitude Azimuth Distance (km) Brightness Sun altitude
Rises 20:47:26 0° 340° (NNW) 3,288 8.3 -28.2°
Reaches altitude 10° 20:49:50 10° 341° (NNW) 2,353 7.3 -28.6°
Enters shadow 20:54:28 67° 347° (NNW) 849 4.2 -29.1°
